Location: Twillingate Astronomical Observatory
(49.6173°N, 54.7580°W)
Time: 23:05:21
(UTC-03:-30)

Amateur Radio Satellites - All Passes

Search period start: 29 January 2015 22:35
Search period end: 30 January 2015 22:35
Location: Twillingate Astronomical Observatory, 49.6173°N, 54.7580°W

Satellite Date Start Highest point End Downlink Frequencies (MHz)
Time Altitude Azimuth
TISAT 1 29 Jan 22:37:36 22:41:20 31° 66° (ENE) 22:45:08 437.305
UNISAT 6 29 Jan 22:41:47 22:46:12 52° 99° (E) 22:50:29 437.425
CUBEBUG 2 29 Jan 22:43:49 22:46:30 14° 275° (W) 22:48:59 437.445
HUMSAT D 29 Jan 22:47:04 22:50:41 24° 268° (W) 22:54:14 437.325/437.525
ZACube-1 29 Jan 22:48:52 22:51:49 16° 273° (W) 22:54:37 437.345
AIST 1 29 Jan 22:50:14 22:54:26 48° 266° (W) 22:58:38
POPSAT HIP 1 29 Jan 22:52:34 22:56:41 41° 98° (E) 23:00:47 437.405
DUCHIFAT 1 29 Jan 22:54:55 22:59:04 43° 98° (E) 23:03:10 145.980
DX 1 29 Jan 22:57:09 22:57:45 10° 276° (W) 22:58:05 434.975-435.025
FUNcube-1 29 Jan 23:01:40 23:03:49 13° 275° (W) 23:05:45 145.935
SWISSCUBE 29 Jan 23:16:18 23:19:29 18° 59° (ENE) 23:22:47 437.505
ANTELSAT 29 Jan 23:17:49 23:22:20 71° 286° (WNW) 23:26:42 437.575/2403.000
AISAT 29 Jan 23:21:52 23:24:25 14° 273° (W) 23:26:48 437.250
ESTCUBE 1 29 Jan 23:24:35 23:28:27 27° 267° (W) 23:32:17 437.505/2401.250
TIGRISAT 29 Jan 23:25:19 23:29:47 62° 288° (WNW) 23:34:05 435.000
NANOSAT C BR1 29 Jan 23:29:33 23:33:54 85° 285° (WNW) 23:38:12 145.865
BEESAT 29 Jan 23:31:27 23:35:05 23° 61° (ENE) 23:38:49 436.000
ITUPSAT 1 29 Jan 23:35:31 23:39:16 24° 62° (ENE) 23:43:07 437.325
SPROUT 29 Jan 23:37:19 23:41:38 72° 258° (WSW) 23:46:00 437.525
O/OREOS (USA 219) 29 Jan 23:40:45 23:42:47 13° 37° (NE) 23:44:57 437.305
ISS 29 Jan 23:41:47 23:45:04 84° 339° (NNW) 23:48:24 145.825
QB50P2 29 Jan 23:44:15 23:48:32 61° 287° (WNW) 23:52:46 145.880/145.840
GONETS M04 29 Jan 23:50:19 23:56:31 23° 78° (ENE) 00:03:01
QB50P1 29 Jan 23:53:28 23:57:40 50° 290° (WNW) 00:01:50 145.935-145.965
CUBEBUG 1 29 Jan 23:56:33 23:59:07 15° 273° (W) 00:01:33 437.445
BUGSAT 1 30 Jan 00:02:26 00:06:36 51° 289° (WNW) 00:10:46 437.445
POLYITAN 1 30 Jan 00:08:47 00:12:47 36° 293° (WNW) 00:16:43 437.675
TISAT 1 30 Jan 00:13:18 00:17:09 32° 265° (W) 00:21:00 437.305
Oscar 19 30 Jan 00:17:58 00:19:56 12° 84° (E) 00:22:12 437.125/150
UNISAT 6 30 Jan 00:19:14 00:22:42 21° 298° (WNW) 00:26:00 437.425
POPSAT HIP 1 30 Jan 00:28:51 00:32:26 25° 296° (WNW) 00:35:55 437.405
DUCHIFAT 1 30 Jan 00:31:13 00:34:44 24° 296° (WNW) 00:38:09 145.980
SWISSCUBE 30 Jan 00:52:08 00:56:53 73° 257° (WSW) 01:01:41 437.505
ANTELSAT 30 Jan 00:56:54 00:58:22 11° 306° (NW) 00:59:37 437.575/2403.000
NANOSAT C BR1 30 Jan 01:07:12 01:09:09 13° 303° (WNW) 01:10:56 145.865
BEESAT 30 Jan 01:07:57 01:12:38 56° 259° (W) 01:17:21 436.000
STARS 30 Jan 01:12:07 01:15:55 28° 64° (ENE) 01:19:47 437.465
ITUPSAT 1 30 Jan 01:12:15 01:16:55 52° 260° (W) 01:21:36 437.325
ISS 30 Jan 01:18:28 01:21:44 59° 3° (N) 01:25:01 145.825
O/OREOS (USA 219) 30 Jan 01:18:41 01:23:15 60° 59° (ENE) 01:27:49 437.305
KKS-1 30 Jan 01:19:14 01:23:30 46° 69° (ENE) 01:27:51 437.445
M-CUBED/EXP-1 PRIME 30 Jan 01:31:29 01:34:56 32° 63° (ENE) 01:38:12 437.505
Gurwin Techsat 1B 30 Jan 01:34:44 01:37:57 16° 86° (E) 01:41:21 435.225
BEESAT 2 30 Jan 01:37:24 01:40:07 18° 114° (ESE) 01:42:58 435.950
GONETS M04 30 Jan 01:43:33 01:52:20 90° 279° (W) 02:01:08
BEESAT 3 30 Jan 01:50:07 01:53:30 25° 117° (ESE) 01:56:58 437.485
Oscar 19 30 Jan 01:55:04 02:00:16 81° 103° (ESE) 02:05:25 437.125/150
CUSAT 1 30 Jan 02:01:47 02:04:13 12° 74° (ENE) 02:07:13 437.405
AUBIESAT-1 30 Jan 02:03:46 02:07:36 62° 68° (ENE) 02:11:09 437.475
ITAMSAT 1 30 Jan 02:12:32 02:17:33 45° 98° (E) 02:22:34 435.822/435.867
STARS 30 Jan 02:48:08 02:52:18 38° 263° (W) 02:56:29 437.465
ISS 30 Jan 02:55:00 02:58:19 68° 203° (SSW) 03:01:36 145.825
HORYU 2 30 Jan 02:56:33 03:00:16 26° 93° (E) 03:04:01 437.375
KKS-1 30 Jan 02:56:48 03:00:25 23° 268° (W) 03:04:00 437.445
AO-7 30 Jan 02:58:42 03:04:28 21° 86° (E) 03:10:33 29.400- 29.500
O/OREOS (USA 219) 30 Jan 02:59:00 03:02:19 19° 258° (WSW) 03:05:29 437.305
MOZHAYETS 4 30 Jan 03:03:30 03:07:16 26° 64° (ENE) 03:11:08
M-CUBED/EXP-1 PRIME 30 Jan 03:06:39 03:09:59 25° 258° (WSW) 03:13:05 437.505
RS-15 30 Jan 03:10:04 03:16:35 19° 100° (E) 03:23:44 29.354- 29.394
AIST 2 30 Jan 03:13:02 03:17:14 59° 125° (SE) 03:21:30 435.215
Gurwin Techsat 1B 30 Jan 03:13:20 03:18:42 83° 287° (WNW) 03:24:01 435.225
DANDE 30 Jan 03:13:23 03:20:30 32° 85° (E) 03:27:51 436.750
BEESAT 2 30 Jan 03:13:47 03:17:55 68° 312° (NW) 03:22:08 435.950
BEESAT 3 30 Jan 03:27:24 03:31:26 48° 316° (NW) 03:35:31 437.485
Oscar 19 30 Jan 03:35:30 03:39:05 19° 303° (WNW) 03:42:31 437.125/150
CUSAT 1 30 Jan 03:37:49 03:45:44 50° 92° (E) 03:53:36 437.405
AUBIESAT-1 30 Jan 03:40:55 03:42:53 13° 264° (W) 03:44:39 437.475
GONETS M04 30 Jan 03:43:34 03:50:37 25° 304° (NW) 03:57:26
YUBILEINY 30 Jan 03:50:46 03:54:09 13° 40° (NE) 03:58:00 435.215
ITAMSAT 1 30 Jan 03:52:21 03:56:56 31° 297° (WNW) 04:01:29 435.822/435.867
JAS-2 30 Jan 04:18:31 04:23:35 34° 95° (E) 04:29:13 435.910
PCSat 30 Jan 04:28:23 04:33:42 59° 120° (ESE) 04:39:04 145.827
ISS 30 Jan 04:32:15 04:34:22 16° 221° (SW) 04:36:25 145.825
HORYU 2 30 Jan 04:32:55 04:37:06 40° 293° (WNW) 04:41:15 437.375
MOZHAYETS 4 30 Jan 04:39:59 04:44:22 43° 263° (W) 04:48:45
PRISM 30 Jan 04:42:00 04:45:31 28° 65° (ENE) 04:49:05 437.425
AO-7 30 Jan 04:50:18 04:58:43 83° 110° (ESE) 05:07:03 29.400- 29.500
AIST 2 30 Jan 04:52:27 04:56:11 27° 325° (NW) 04:59:54 435.215
BEESAT 2 30 Jan 04:54:00 04:56:54 18° 334° (NNW) 04:59:47 435.950
Gurwin Techsat 1B 30 Jan 04:54:43 04:57:59 16° 305° (NW) 05:01:04 435.225
DANDE 30 Jan 04:54:56 05:03:27 76° 285° (WNW) 05:12:01 436.750
CUBESAT XI-V 30 Jan 04:57:47 05:01:46 30° 65° (ENE) 05:05:51 437.345
BEESAT 3 30 Jan 05:08:06 05:10:33 15° 339° (NNW) 05:12:58 437.485
RS-15 30 Jan 05:16:16 05:27:02 71° 122° (ESE) 05:38:01 29.354- 29.394
CUSAT 1 30 Jan 05:20:43 05:28:53 50° 291° (WNW) 05:36:46 437.405
STRAND 1 30 Jan 05:22:19 05:27:05 42° 67° (ENE) 05:31:55 437.568
YUBILEINY 30 Jan 05:45:38 05:54:00 47° 68° (ENE) 06:02:27 435.215
Cubesat XI-IV 30 Jan 06:01:06 06:06:04 37° 96° (E) 06:11:04 437.490
JAS-2 30 Jan 06:03:37 06:08:52 45° 293° (WNW) 06:14:39 435.910
PCSat 30 Jan 06:12:34 06:17:28 33° 321° (NW) 06:22:22 145.827
PRISM 30 Jan 06:17:16 06:21:00 32° 264° (W) 06:24:43 437.425
CUTE-I 30 Jan 06:20:42 06:25:58 53° 100° (E) 06:31:14 437.470
AIST 2 30 Jan 06:34:30 06:36:12 12° 349° (NNW) 06:37:52 435.215
CUBESAT XI-V 30 Jan 06:34:53 06:39:10 37° 264° (W) 06:43:28 437.345
BEESAT 2 30 Jan 06:36:20 06:36:46 10° 358° (N) 06:37:11 435.950
DANDE 30 Jan 06:41:39 06:48:25 24° 307° (NW) 06:54:48 436.750
AO-7 30 Jan 06:43:45 06:50:48 31° 310° (NW) 06:57:40 29.400- 29.500
STRAND 1 30 Jan 07:01:53 07:06:26 31° 266° (W) 07:10:58 437.568
CUSAT 1 30 Jan 07:09:13 07:14:02 15° 314° (NW) 07:18:21 437.405
RS-15 30 Jan 07:29:31 07:40:07 51° 330° (NNW) 07:50:58 29.354- 29.394
Cubesat XI-IV 30 Jan 07:41:15 07:46:13 38° 295° (WNW) 07:51:08 437.490
YUBILEINY 30 Jan 07:42:39 07:51:00 49° 271° (W) 07:59:16 435.215
HO-68 30 Jan 07:45:21 07:50:16 20° 86° (E) 07:55:27 435.675
GOMX 1 30 Jan 07:58:12 08:02:01 20° 86° (E) 08:05:53 467.674
CUTE 1.7 + AOD 2 30 Jan 07:59:17 08:01:38 15° 87° (E) 08:04:07 437.475
PCSat 30 Jan 07:59:43 08:02:37 14° 346° (NNW) 08:05:28 145.827
CUTE-I 30 Jan 08:01:15 08:05:50 28° 299° (WNW) 08:10:19 437.470
DOVE 4 30 Jan 08:06:34 08:09:43 16° 84° (E) 08:13:00 437.250
BRITE-PL 30 Jan 08:06:44 08:11:46 32° 92° (E) 08:16:43 437.365/2234.400
UNISAT 6 30 Jan 08:11:05 08:13:15 13° 56° (ENE) 08:15:35 437.425
BEESAT 2 30 Jan 08:14:17 08:16:42 15° 21° (NNE) 08:19:10 435.950
AIST 2 30 Jan 08:14:52 08:16:37 12° 12° (NNE) 08:18:26 435.215
BEESAT 3 30 Jan 08:27:21 08:30:11 17° 26° (NNE) 08:33:02 437.485
SEEDS 30 Jan 08:27:53 08:31:17 24° 92° (E) 08:34:44 437.485
AO-7 30 Jan 08:38:37 08:41:00 11° 336° (NNW) 08:43:09 29.400- 29.500
ANTELSAT 30 Jan 08:45:13 08:49:00 25° 63° (ENE) 08:52:50 437.575/2403.000
TIGRISAT 30 Jan 08:52:11 08:56:09 28° 64° (ENE) 09:00:07 435.000
NANOSAT C BR1 30 Jan 08:52:30 08:55:15 17° 60° (ENE) 08:58:08 145.865
COMPASS 1 30 Jan 08:52:48 08:56:39 35° 96° (E) 09:00:30 437.405
CUBEBUG 2 30 Jan 08:53:13 08:55:28 14° 85° (E) 08:57:53 437.445
VERMONT LUNAR 30 Jan 08:53:22 08:54:53 12° 162° (SSE) 08:56:28 437.305
ZACube-1 30 Jan 08:58:12 08:58:34 10° 83° (E) 08:59:11 437.345
DX 1 30 Jan 09:02:07 09:04:03 13° 86° (E) 09:06:11 434.975-435.025
QB50P2 30 Jan 09:06:40 09:10:01 23° 63° (ENE) 09:13:29 145.880/145.840
FUNcube-1 30 Jan 09:08:24 09:10:24 13° 85° (E) 09:12:35 145.935
DELFI C3 30 Jan 09:08:41 09:11:36 19° 91° (E) 09:14:36 145.870
CANX-2 30 Jan 09:09:48 09:14:04 79° 103° (ESE) 09:18:17 2200.000
QB50P1 30 Jan 09:15:23 09:18:58 27° 65° (ENE) 09:22:38 145.935-145.965
AAUSAT CUBESAT 2 30 Jan 09:18:13 09:22:20 56° 100° (E) 09:26:25 437.432
BUGSAT 1 30 Jan 09:22:17 09:25:36 24° 64° (ENE) 09:29:02 437.445
CINEMA 3 30 Jan 09:22:49 09:27:29 42° 96° (E) 09:31:57 145.822/145.860
UWE-3 30 Jan 09:30:09 09:33:55 26° 92° (E) 09:37:38 435.000/436.395/437.385
POLYITAN 1 30 Jan 09:30:23 09:34:21 37° 68° (ENE) 09:38:23 437.675
HO-68 30 Jan 09:31:53 09:39:07 89° 113° (ESE) 09:46:18 435.675
AISAT 30 Jan 09:32:02 09:33:02 11° 84° (E) 09:34:18 437.250
CUTE 1.7 + AOD 2 30 Jan 09:33:52 09:38:05 65° 287° (WNW) 09:42:16 437.475
GOMX 1 30 Jan 09:35:18 09:40:47 73° 287° (WNW) 09:46:01 467.674
Oscar 11 30 Jan 09:38:39 09:42:50 47° 98° (E) 09:47:00 145.826/435.025
DOVE 4 30 Jan 09:42:58 09:48:16 81° 286° (WNW) 09:53:18 437.250
UNISAT 6 30 Jan 09:44:40 09:49:23 80° 74° (ENE) 09:54:05 437.425
BRITE-PL 30 Jan 09:44:59 09:50:29 48° 292° (WNW) 09:55:46 437.365/2234.400
RS-15 30 Jan 09:45:30 09:55:31 37° 3° (N) 10:05:53 29.354- 29.394
PCSat 30 Jan 09:45:43 09:48:24 14° 12° (NNE) 09:51:08 145.827
POPSAT HIP 1 30 Jan 09:49:36 09:53:48 55° 71° (ENE) 09:58:02 437.405
DUCHIFAT 1 30 Jan 09:51:40 09:55:51 57° 72° (ENE) 10:00:06 145.980
BEESAT 2 30 Jan 09:51:50 09:55:55 48° 44° (NE) 09:59:58 435.950
AIST 2 30 Jan 09:52:49 09:56:36 29° 36° (NE) 10:00:23 435.215
GONETS M04 30 Jan 09:52:53 09:57:41 16° 45° (NE) 10:02:52
50 SAT 30 Jan 09:54:39 09:57:01 15° 88° (E) 09:59:31 437.505
PHONESAT 2.4 30 Jan 09:57:10 09:59:26 16° 167° (SSE) 10:01:45 2401.200-2431.200
VELOX 1 30 Jan 09:58:02 10:01:13 19° 90° (E) 10:04:29 145.980
SEEDS 30 Jan 10:03:21 10:07:18 39° 291° (WNW) 10:11:11 437.485
BEESAT 3 30 Jan 10:04:55 10:09:06 66° 47° (NE) 10:13:13 437.485
UKube-1 30 Jan 10:14:31 10:18:52 60° 102° (ESE) 10:23:10 .
SO-50 30 Jan 10:18:28 10:22:52 46° 122° (ESE) 10:27:26 436.795
ANTELSAT 30 Jan 10:20:59 10:25:35 49° 261° (W) 10:30:08 437.575/2403.000
HUMSAT D 30 Jan 10:26:27 10:30:31 42° 98° (E) 10:34:31 437.325/437.525
NANOSAT C BR1 30 Jan 10:26:28 10:30:43 65° 258° (WSW) 10:35:01 145.865
TIGRISAT 30 Jan 10:28:14 10:32:45 43° 262° (W) 10:37:13 435.000
CUBEBUG 2 30 Jan 10:28:15 10:32:54 79° 286° (WNW) 10:37:21 437.445
COMPASS 1 30 Jan 10:28:44 10:32:18 27° 294° (WNW) 10:35:46 437.405
VERMONT LUNAR 30 Jan 10:29:44 10:32:15 19° 179° (S) 10:34:47 437.305
ZACube-1 30 Jan 10:31:21 10:35:51 82° 103° (ESE) 10:40:12 437.345
DX 1 30 Jan 10:36:33 10:40:59 81° 286° (WNW) 10:45:22 434.975-435.025
QB50P2 30 Jan 10:41:36 10:45:44 45° 261° (W) 10:49:55 145.880/145.840
FUNcube-1 30 Jan 10:42:59 10:47:28 79° 285° (WNW) 10:51:49 145.935
DELFI C3 30 Jan 10:43:14 10:47:08 45° 289° (WNW) 10:50:59 145.870
CANX-2 30 Jan 10:47:09 10:49:29 14° 301° (WNW) 10:51:41 2200.000
QB50P1 30 Jan 10:50:45 10:54:45 37° 263° (W) 10:58:47 145.935-145.965
AAUSAT CUBESAT 2 30 Jan 10:54:46 10:57:39 18° 298° (WNW) 11:00:26 437.432
BUGSAT 1 30 Jan 10:57:03 11:00:56 39° 263° (W) 11:04:54 437.445
CINEMA 3 30 Jan 11:00:18 11:04:32 29° 296° (WNW) 11:08:34 145.822/145.860
AISAT 30 Jan 11:05:57 11:10:30 83° 105° (ESE) 11:15:01 437.250
UWE-3 30 Jan 11:06:22 11:10:39 41° 292° (WNW) 11:14:47 435.000/436.395/437.385
POLYITAN 1 30 Jan 11:06:42 11:10:25 27° 267° (W) 11:14:06 437.675
ESTCUBE 1 30 Jan 11:12:10 11:16:32 46° 99° (E) 11:20:55 437.505/2401.250
GOMX 1 30 Jan 11:14:58 11:18:02 15° 306° (NW) 11:20:51 467.674
Oscar 11 30 Jan 11:15:24 11:18:48 22° 297° (WNW) 11:22:05 145.826/435.025
HO-68 30 Jan 11:20:30 11:26:06 25° 308° (NW) 11:31:34 435.675
SPROUT 30 Jan 11:21:01 11:23:34 16° 88° (E) 11:26:16 437.525
DOVE 4 30 Jan 11:22:09 11:25:14 16° 305° (NW) 11:28:06 437.250
AIST 1 30 Jan 11:23:59 11:28:14 79° 100° (E) 11:32:32
UNISAT 6 30 Jan 11:24:07 11:26:50 15° 274° (W) 11:29:21 437.425
BRITE-PL 30 Jan 11:26:22 11:27:46 11° 311° (NW) 11:28:55 437.365/2234.400
POPSAT HIP 1 30 Jan 11:27:03 11:30:06 18° 270° (W) 11:33:02 437.405
50 SAT 30 Jan 11:28:34 11:32:36 58° 288° (WNW) 11:36:32 437.505
PCSat 30 Jan 11:28:54 11:33:39 30° 37° (NE) 11:38:26 145.827
DUCHIFAT 1 30 Jan 11:29:12 11:32:08 17° 271° (W) 11:34:58 145.980
BEESAT 2 30 Jan 11:30:25 11:33:57 26° 243° (WSW) 11:37:23 435.950
AIST 2 30 Jan 11:31:16 11:35:29 53° 236° (WSW) 11:39:37 435.215
VELOX 1 30 Jan 11:33:46 11:38:11 56° 289° (WNW) 11:42:36 145.980
PHONESAT 2.4 30 Jan 11:34:38 11:37:17 19° 184° (S) 11:39:57 2401.200-2431.200
Oscar 19 30 Jan 11:38:01 11:42:26 30° 63° (ENE) 11:46:56 437.125/150
CUBEBUG 1 30 Jan 11:38:44 11:43:13 78° 102° (ESE) 11:47:40 437.445
BEESAT 3 30 Jan 11:43:57 11:46:50 18° 246° (WSW) 11:49:36 437.485
GONETS M04 30 Jan 11:48:26 11:57:00 58° 73° (ENE) 12:05:34
UKube-1 30 Jan 11:51:33 11:54:39 19° 300° (WNW) 11:57:40 .
TISAT 1 30 Jan 11:53:37 11:57:25 30° 95° (E) 12:01:13 437.305
ITAMSAT 1 30 Jan 11:57:41 12:01:10 19° 57° (ENE) 12:04:48 435.822/435.867
SO-50 30 Jan 11:59:13 12:03:33 36° 323° (NW) 12:08:02 436.795
RS-15 30 Jan 11:59:47 12:10:45 56° 34° (NE) 12:22:14 29.354- 29.394
HUMSAT D 30 Jan 12:02:41 12:06:08 24° 296° (WNW) 12:09:28 437.325/437.525
CUBEBUG 2 30 Jan 12:06:46 12:08:53 13° 304° (NW) 12:10:48 437.445
VERMONT LUNAR 30 Jan 12:07:44 12:09:38 14° 195° (SSW) 12:11:30 437.305
ZACube-1 30 Jan 12:09:05 12:11:39 15° 302° (WNW) 12:14:04 437.345
AO-7 30 Jan 12:14:36 12:18:52 16° 33° (NNE) 12:23:23 29.400- 29.500
DX 1 30 Jan 12:14:37 12:16:35 13° 304° (NW) 12:18:23 434.975-435.025
FUNcube-1 30 Jan 12:21:16 12:23:07 12° 304° (NW) 12:24:45 145.935
CUSAT 1 30 Jan 12:35:37 12:36:31 10° 38° (NE) 12:37:40 437.405
AISAT 30 Jan 12:43:54 12:46:35 15° 302° (WNW) 12:49:08 437.250
SWISSCUBE 30 Jan 12:48:49 12:52:26 22° 91° (E) 12:56:10 437.505
ESTCUBE 1 30 Jan 12:49:30 12:53:13 25° 297° (WNW) 12:56:51 437.505/2401.250
SPROUT 30 Jan 12:55:51 13:00:12 66° 287° (WNW) 13:04:30 437.525
Gurwin Techsat 1B 30 Jan 12:59:35 13:04:28 39° 66° (ENE) 13:09:25 435.225
BEESAT 30 Jan 13:04:08 13:08:11 27° 93° (E) 13:12:17 436.000
AIST 1 30 Jan 13:04:27 13:06:36 13° 299° (WNW) 13:08:35
ITUPSAT 1 30 Jan 13:08:40 13:12:50 29° 94° (E) 13:17:03 437.325
PCSat 30 Jan 13:12:08 13:17:33 69° 239° (WSW) 13:22:56 145.827
PHONESAT 2.4 30 Jan 13:13:45 13:15:05 12° 200° (SSW) 13:16:21 2401.200-2431.200
CUBEBUG 1 30 Jan 13:16:21 13:19:06 16° 301° (WNW) 13:21:42 437.445
Oscar 19 30 Jan 13:16:37 13:21:38 47° 261° (W) 13:26:40 437.125/150
TISAT 1 30 Jan 13:29:23 13:33:16 33° 293° (WNW) 13:37:06 437.305
ITAMSAT 1 30 Jan 13:34:56 13:40:07 81° 255° (WSW) 13:45:23 435.822/435.867
SO-50 30 Jan 13:42:33 13:45:28 16° 347° (NNW) 13:48:24 436.795
GONETS M04 30 Jan 13:45:46 13:53:35 38° 275° (W) 14:01:15
DANDE 30 Jan 13:52:51 13:58:53 29° 57° (ENE) 14:03:47 436.750
HORYU 2 30 Jan 13:59:00 14:03:13 41° 68° (ENE) 14:07:29 437.375
AO-7 30 Jan 14:01:59 14:09:43 45° 57° (ENE) 14:17:33 29.400- 29.500
RS-15 30 Jan 14:12:30 14:23:36 63° 240° (WSW) 14:35:07 29.354- 29.394
CUSAT 1 30 Jan 14:15:45 14:22:03 43° 65° (ENE) 14:26:52 437.405
SWISSCUBE 30 Jan 14:26:00 14:30:42 55° 290° (WNW) 14:35:22 437.505
STARS 30 Jan 14:33:43 14:37:36 29° 94° (E) 14:41:31 437.465
SPROUT 30 Jan 14:34:57 14:35:32 10° 305° (NW) 14:35:54 437.525
JAS-2 30 Jan 14:37:11 14:41:11 23° 60° (ENE) 14:45:14 435.910
Gurwin Techsat 1B 30 Jan 14:39:38 14:44:31 36° 265° (W) 14:49:23 435.225
BEESAT 30 Jan 14:41:42 14:46:14 43° 292° (WNW) 14:50:44 436.000
KKS-1 30 Jan 14:42:30 14:46:55 51° 100° (E) 14:51:18 437.445
ITUPSAT 1 30 Jan 14:46:23 14:50:53 40° 293° (WNW) 14:55:21 437.325
PCSat 30 Jan 14:58:04 15:00:06 12° 257° (WSW) 15:01:50 145.827
AUBIESAT-1 30 Jan 15:16:24 15:18:50 19° 99° (E) 15:21:23 437.475
ITAMSAT 1 30 Jan 15:18:15 15:20:36 13° 276° (W) 15:22:42 435.822/435.867
SO-50 30 Jan 15:25:05 15:27:53 15° 11° (N) 15:30:45 436.795
O/OREOS (USA 219) 30 Jan 15:35:49 15:39:39 29° 106° (ESE) 15:43:35 437.305
DANDE 30 Jan 15:36:10 15:43:05 60° 265° (W) 15:48:13 436.750
HORYU 2 30 Jan 15:36:16 15:40:04 26° 267° (W) 15:43:49 437.375
Cubesat XI-IV 30 Jan 15:50:03 15:53:25 18° 55° (NE) 15:56:56 437.490
AO-7 30 Jan 15:54:15 16:02:27 55° 259° (WSW) 16:10:39 29.400- 29.500
CUSAT 1 30 Jan 15:59:12 16:04:54 33° 274° (W) 16:09:16 437.405
CUTE-I 30 Jan 16:08:45 16:12:50 23° 59° (ENE) 16:17:02 437.470
STARS 30 Jan 16:10:04 16:14:10 36° 293° (WNW) 16:18:12 437.465
M-CUBED/EXP-1 PRIME 30 Jan 16:18:33 16:21:52 68° 292° (WNW) 16:25:13 437.505
KKS-1 30 Jan 16:19:46 16:23:18 22° 298° (WNW) 16:26:44 437.445
JAS-2 30 Jan 16:20:43 16:26:03 60° 258° (WSW) 16:31:12 435.910
RS-15 30 Jan 16:27:15 16:33:59 17° 262° (W) 16:40:03 29.354- 29.394
MOZHAYETS 4 30 Jan 16:30:43 16:34:50 33° 95° (E) 16:38:59
AUBIESAT-1 30 Jan 16:50:55 16:53:56 32° 297° (WNW) 16:56:58 437.475
SO-50 30 Jan 17:05:30 17:09:53 32° 34° (NE) 17:14:21 436.795
O/OREOS (USA 219) 30 Jan 17:14:43 17:18:58 40° 306° (NW) 17:23:16 437.305
DANDE 30 Jan 17:23:19 17:24:40 10° 289° (WNW) 17:25:36 436.750
Cubesat XI-IV 30 Jan 17:27:32 17:32:52 89° 85° (E) 17:38:17 437.490
CUTE-I 30 Jan 17:47:13 17:52:31 66° 257° (WSW) 17:57:52 437.470
BRITE-PL 30 Jan 17:47:48 17:49:04 11° 49° (NE) 17:50:36 437.365/2234.400
AO-7 30 Jan 17:54:44 17:57:33 11° 282° (WNW) 17:59:43 29.400- 29.500
PRISM 30 Jan 17:55:41 17:59:06 25° 94° (E) 18:02:35 437.425
MOZHAYETS 4 30 Jan 18:07:58 18:12:05 33° 294° (WNW) 18:16:10
HO-68 30 Jan 18:18:57 18:24:38 27° 53° (NE) 18:30:27 435.675
CUBESAT XI-V 30 Jan 18:26:50 18:31:16 40° 97° (E) 18:35:43 437.345
CANX-2 30 Jan 18:33:39 18:35:47 14° 59° (ENE) 18:38:04 2200.000
SO-50 30 Jan 18:45:55 18:50:47 61° 235° (SW) 18:55:39 436.795
YUBILEINY 30 Jan 18:52:21 19:00:20 44° 87° (E) 19:08:28 435.215
CINEMA 3 30 Jan 18:54:59 18:56:50 12° 54° (NE) 18:58:53 145.822/145.860
CUTE 1.7 + AOD 2 30 Jan 18:56:28 18:59:34 20° 63° (ENE) 19:02:45 437.475
STRAND 1 30 Jan 19:07:04 19:12:13 64° 102° (ESE) 19:17:20 437.568
GOMX 1 30 Jan 19:09:59 19:14:33 32° 64° (ENE) 19:19:23 467.674
Cubesat XI-IV 30 Jan 19:10:43 19:13:51 15° 275° (W) 19:16:45 437.490
DOVE 4 30 Jan 19:15:47 19:20:04 28° 62° (ENE) 19:24:34 437.250
BRITE-PL 30 Jan 19:21:21 19:26:22 51° 69° (ENE) 19:31:47 437.365/2234.400
SEEDS 30 Jan 19:24:20 19:28:03 31° 67° (ENE) 19:31:50 437.485
PRISM 30 Jan 19:30:54 19:34:46 37° 292° (WNW) 19:38:36 437.425
CUTE-I 30 Jan 19:33:16 19:33:49 10° 279° (W) 19:34:01 437.470
UKube-1 30 Jan 19:40:23 19:42:26 14° 57° (ENE) 19:44:39 .
COMPASS 1 30 Jan 19:48:26 19:52:27 43° 70° (ENE) 19:56:28 437.405
CUBEBUG 2 30 Jan 19:55:10 19:58:47 22° 62° (ENE) 20:02:31 437.445
ZACube-1 30 Jan 19:57:06 20:00:00 17° 60° (ENE) 20:03:01 437.345
DELFI C3 30 Jan 20:01:16 20:04:29 23° 65° (ENE) 20:07:45 145.870
DX 1 30 Jan 20:01:34 20:04:48 21° 61° (ENE) 20:08:08 434.975-435.025
CUBESAT XI-V 30 Jan 20:04:33 20:08:37 29° 295° (WNW) 20:12:37 437.345
HO-68 30 Jan 20:04:33 20:11:44 81° 253° (WSW) 20:18:57 435.675
CANX-2 30 Jan 20:06:54 20:11:12 84° 257° (WSW) 20:15:31 2200.000
FUNcube-1 30 Jan 20:08:01 20:11:22 21° 61° (ENE) 20:14:48 145.935
AAUSAT CUBESAT 2 30 Jan 20:13:23 20:17:34 69° 74° (ENE) 20:21:46 437.432
CINEMA 3 30 Jan 20:28:14 20:33:10 64° 72° (ENE) 20:38:12 145.822/145.860
CUTE 1.7 + AOD 2 30 Jan 20:31:00 20:35:12 52° 260° (W) 20:39:25 437.475
UWE-3 30 Jan 20:31:12 20:35:30 37° 68° (ENE) 20:39:52 435.000/436.395/437.385
AISAT 30 Jan 20:33:27 20:36:29 19° 60° (ENE) 20:39:39 437.250
Oscar 11 30 Jan 20:37:30 20:41:48 64° 73° (ENE) 20:46:07 145.826/435.025
ESTCUBE 1 30 Jan 20:43:00 20:44:22 11° 55° (NE) 20:45:56 437.505/2401.250
50 SAT 30 Jan 20:46:19 20:49:15 19° 63° (ENE) 20:52:16 437.505
STRAND 1 30 Jan 20:47:01 20:51:02 23° 301° (WNW) 20:54:58 437.568
GOMX 1 30 Jan 20:47:32 20:52:31 46° 264° (W) 20:57:46 467.674
YUBILEINY 30 Jan 20:48:44 20:57:10 51° 290° (WNW) 21:05:36 435.215
DOVE 4 30 Jan 20:52:31 20:57:33 53° 261° (W) 21:02:47 437.250
VELOX 1 30 Jan 20:59:56 21:03:45 30° 65° (ENE) 21:07:40 145.980
SEEDS 30 Jan 21:00:03 21:03:53 31° 265° (W) 21:07:42 437.485
BRITE-PL 30 Jan 21:00:43 21:05:13 28° 270° (W) 21:09:53 437.365/2234.400
CUBEBUG 1 30 Jan 21:05:05 21:07:41 16° 59° (ENE) 21:10:25 437.445
UKube-1 30 Jan 21:13:40 21:18:00 90° 117° (ESE) 21:22:24 .
ISS 30 Jan 21:14:34 21:16:45 17° 140° (SE) 21:18:59 145.825
HUMSAT D 30 Jan 21:22:30 21:26:44 54° 71° (ENE) 21:31:01 437.325/437.525
COMPASS 1 30 Jan 21:25:04 21:28:24 22° 269° (W) 21:31:39 437.405
AIST 1 30 Jan 21:26:50 21:30:44 31° 71° (ENE) 21:34:40
CUBEBUG 2 30 Jan 21:30:26 21:35:09 58° 260° (W) 21:39:55 437.445
ZACube-1 30 Jan 21:31:16 21:35:53 76° 258° (WSW) 21:40:32 437.345
UNISAT 6 30 Jan 21:34:41 21:36:23 12° 85° (E) 21:38:16 437.425
DELFI C3 30 Jan 21:35:42 21:39:34 40° 263° (W) 21:43:25 145.870
DX 1 30 Jan 21:36:29 21:40:45 53° 260° (W) 21:45:04 434.975-435.025
FUNcube-1 30 Jan 21:42:47 21:47:21 60° 260° (W) 21:51:56 145.935
AAUSAT CUBESAT 2 30 Jan 21:51:27 21:53:47 14° 273° (W) 21:55:57 437.432
HO-68 30 Jan 21:55:58 22:00:44 18° 275° (W) 22:05:12 435.675
CINEMA 3 30 Jan 22:07:07 22:10:51 20° 272° (W) 22:14:31 145.822/145.860
UWE-3 30 Jan 22:07:55 22:12:07 31° 266° (W) 22:16:18 435.000/436.395/437.385
AISAT 30 Jan 22:08:16 22:12:42 64° 258° (WSW) 22:17:12 437.250
NANOSAT C BR1 30 Jan 22:08:33 22:11:08 16° 88° (E) 22:13:52 145.865
ANTELSAT 30 Jan 22:09:20 22:13:03 26° 92° (E) 22:16:45 437.575/2403.000
Oscar 11 30 Jan 22:15:41 22:18:28 16° 272° (W) 22:21:06 145.826/435.025
TIGRISAT 30 Jan 22:16:01 22:19:55 29° 94° (E) 22:23:47 435.000
ESTCUBE 1 30 Jan 22:16:04 22:20:32 72° 73° (ENE) 22:25:02 437.505/2401.250
SPROUT 30 Jan 22:19:25 22:22:43 22° 63° (ENE) 22:26:05 437.525
50 SAT 30 Jan 22:20:01 22:24:04 52° 260° (W) 22:28:09 437.505
QB50P2 30 Jan 22:23:15 22:26:37 22° 92° (E) 22:30:02 145.880/145.840
